| time (UTC) | temp F | wind direction | speed MPH | gust MPH | rain 1hr in | rain 24hr in | rain mn in | humidity % | barometer mb |
| 20260505183506 | 66 | 302 | 1.0 | 7.0 | 0.00 | 0.00 | 0.00 | 34 | 1014.8 |
| 20260505183005 | 66 | 295 | 1.0 | 8.0 | 0.00 | 0.00 | 0.00 | 36 | 1014.8 |
| 20260505182006 | 65 | 307 | 1.0 | 8.0 | 0.00 | 0.00 | 0.00 | 38 | 1014.8 |
| 20260505181007 | 66 | 328 | 0.0 | 0.0 | 0.00 | 0.00 | 0.00 | 34 | 1014.8 |
| 20260505180507 | 66 | 328 | 1.0 | 10.0 | 0.00 | 0.00 | 0.00 | 36 | 1014.9 |
| 20260505180006 | 66 | 310 | 5.0 | 12.0 | 0.00 | 0.00 | 0.00 | 35 | 1014.8 |
| 20260505175505 | 66 | 287 | 3.0 | 12.0 | 0.00 | 0.00 | 0.00 | 34 | 1014.8 |
| 20260505174506 | 65 | 93 | 0.0 | 3.0 | 0.00 | 0.00 | 0.00 | 37 | 1014.8 |
| 20260505171505 | 63 | 170 | 0.0 | 0.0 | 0.00 | 0.00 | 0.00 | 36 | 1014.7 |
| 20260505171006 | 63 | 163 | 0.0 | 0.0 | 0.00 | 0.00 | 0.00 | 42 | 1014.7 |
| 20260505170006 | 62 | 143 | 0.0 | 0.0 | 0.00 | 0.00 | 0.00 | 43 | 1014.7 |
| 20260505163007 | 61 | 143 | 0.0 | 0.0 | 0.00 | 0.00 | 0.00 | 50 | 1014.6 |
| 20260505162006 | 60 | 143 | 0.0 | 0.0 | 0.00 | 0.00 | 0.00 | 50 | 1014.7 |
| 20260505152505 | 54 | 143 | 0.0 | 0.0 | 0.00 | 0.00 | 0.00 | 66 | 1014.6 |
| 20260505151005 | 52 | 143 | 0.0 | 0.0 | 0.00 | 0.00 | 0.00 | 71 | 1014.6 |
| 20260505150504 | 51 | 143 | 0.0 | 0.0 | 0.00 | 0.00 | 0.00 | 71 | 1014.6 |
| 20260505140505 | 43 | 143 | 0.0 | 0.0 | 0.00 | 0.00 | 0.00 | 80 | 1014.3 |
| 20260505125006 | 37 | 143 | 0.0 | 0.0 | 0.00 | 0.00 | 0.00 | 80 | 1013.7 |
| 20260505124506 | 36 | 143 | 0.0 | 0.0 | 0.00 | 0.00 | 0.00 | 79 | 1013.6 |
| 20260505124006 | 36 | 143 | 0.0 | 0.0 | 0.00 | 0.00 | 0.00 | 79 | 1013.6 |
| 20260505123507 | 36 | 143 | 0.0 | 0.0 | 0.00 | 0.00 | 0.00 | 79 | 1013.6 |
| 20260505122006 | 36 | 143 | 0.0 | 0.0 | 0.00 | 0.00 | 0.00 | 78 | 1013.5 |
| 20260505121508 | 37 | 143 | 0.0 | 0.0 | 0.00 | 0.00 | 0.00 | 78 | 1013.5 |
| 20260505121005 | 37 | 143 | 0.0 | 0.0 | 0.00 | 0.00 | 0.00 | 78 | 1013.3 |
| 20260505120507 | 37 | 143 | 0.0 | 0.0 | 0.00 | 0.00 | 0.00 | 79 | 1013.4 |
| 20260505114506 | 37 | 143 | 0.0 | 0.0 | 0.00 | 0.00 | 0.00 | 79 | 1013.3 |
| 20260505113005 | 37 | 158 | 0.0 | 0.0 | 0.00 | 0.00 | 0.00 | 79 | 1013.3 |
| 20260505112007 | 37 | 158 | 0.0 | 0.0 | 0.00 | 0.00 | 0.00 | 79 | 1013.5 |
| 20260505111007 | 37 | 158 | 0.0 | 0.0 | 0.00 | 0.00 | 0.00 | 78 | 1013.4 |
| 20260505110507 | 37 | 158 | 0.0 | 0.0 | 0.00 | 0.00 | 0.00 | 79 | 1013.3 |
| 20260505102006 | 37 | 158 | 0.0 | 0.0 | 0.00 | 0.00 | 0.00 | 77 | 1013.2 |
| 20260505101505 | 37 | 159 | 0.0 | 0.0 | 0.00 | 0.00 | 0.00 | 77 | 1013.2 |
| 20260505100005 | 39 | 158 | 0.0 | 0.0 | 0.00 | 0.00 | 0.00 | 77 | 1013.1 |
| 20260505095507 | 39 | 158 | 0.0 | 0.0 | 0.00 | 0.00 | 0.00 | 77 | 1013.0 |
| 20260505095006 | 39 | 158 | 0.0 | 0.0 | 0.00 | 0.00 | 0.00 | 77 | 1013.1 |
| 20260505093506 | 39 | 159 | 0.0 | 0.0 | 0.00 | 0.00 | 0.00 | 77 | 1012.9 |
| 20260505093006 | 39 | 159 | 0.0 | 0.0 | 0.00 | 0.00 | 0.00 | 77 | 1013.0 |
| 20260505092507 | 39 | 158 | 0.0 | 0.0 | 0.00 | 0.00 | 0.00 | 77 | 1013.0 |
| 20260505092005 | 39 | 158 | 0.0 | 0.0 | 0.00 | 0.00 | 0.00 | 77 | 1012.9 |
| 20260505091005 | 40 | 159 | 0.0 | 0.0 | 0.00 | 0.00 | 0.00 | 77 | 1012.9 |
| 20260505090006 | 40 | 159 | 0.0 | 0.0 | 0.00 | 0.00 | 0.00 | 77 | 1012.8 |
| 20260505084505 | 40 | 159 | 0.0 | 0.0 | 0.00 | 0.00 | 0.00 | 77 | 1012.9 |
| 20260505082007 | 40 | 160 | 0.0 | 0.0 | 0.00 | 0.00 | 0.00 | 74 | 1012.9 |
| 20260505080007 | 41 | 168 | 0.0 | 0.0 | 0.00 | 0.00 | 0.00 | 75 | 1012.9 |
| 20260505075505 | 41 | 167 | 0.0 | 0.0 | 0.00 | 0.00 | 0.00 | 75 | 1012.8 |
| 20260505075005 | 42 | 168 | 0.0 | 0.0 | 0.00 | 0.00 | 0.00 | 75 | 1012.8 |
| 20260505074505 | 41 | 168 | 0.0 | 0.0 | 0.00 | 0.00 | 0.00 | 75 | 1012.8 |
| 20260505073505 | 41 | 168 | 0.0 | 0.0 | 0.00 | 0.00 | 0.00 | 75 | 1012.8 |
| 20260505073005 | 41 | 168 | 0.0 | 0.0 | 0.00 | 0.00 | 0.00 | 74 | 1012.7 |
| 20260505071006 | 42 | 180 | 0.0 | 0.0 | 0.00 | 0.00 | 0.00 | 74 | 1012.7 |
| 20260505070506 | 42 | 186 | 0.0 | 0.0 | 0.00 | 0.00 | 0.00 | 73 | 1012.7 |
| 20260505070005 | 42 | 186 | 0.0 | 0.0 | 0.00 | 0.00 | 0.00 | 73 | 1012.5 |
| 20260505065505 | 43 | 186 | 0.0 | 0.0 | 0.00 | 0.00 | 0.00 | 73 | 1012.5 |
| 20260505065006 | 43 | 186 | 0.0 | 0.0 | 0.00 | 0.00 | 0.00 | 72 | 1012.5 |
| 20260505064505 | 43 | 186 | 0.0 | 0.0 | 0.00 | 0.00 | 0.00 | 72 | 1012.4 |
| 20260505064005 | 43 | 186 | 0.0 | 0.0 | 0.00 | 0.00 | 0.00 | 73 | 1012.5 |
| 20260505062004 | 43 | 186 | 0.0 | 0.0 | 0.00 | 0.00 | 0.00 | 70 | 1012.5 |
| 20260505061505 | 44 | 189 | 0.0 | 0.0 | 0.00 | 0.00 | 0.00 | 70 | 1012.5 |
| 20260505061005 | 44 | 189 | 0.0 | 0.0 | 0.00 | 0.00 | 0.00 | 70 | 1012.5 |
| 20260505060005 | 44 | 189 | 0.0 | 0.0 | 0.00 | 0.00 | 0.00 | 69 | 1012.5 |
| 20260505055504 | 45 | 189 | 0.0 | 0.0 | 0.00 | 0.00 | 0.00 | 69 | 1012.5 |
| 20260505054506 | 46 | 192 | 0.0 | 0.0 | 0.00 | 0.00 | 0.00 | 68 | 1012.5 |
| 20260505054005 | 46 | 197 | 0.0 | 0.0 | 0.00 | 0.00 | 0.00 | 66 | 1012.5 |
| 20260505053005 | 48 | 198 | 0.0 | 0.0 | 0.00 | 0.00 | 0.00 | 64 | 1012.4 |
| 20260505052006 | 48 | 198 | 0.0 | 0.0 | 0.00 | 0.00 | 0.00 | 63 | 1012.4 |
| 20260505051005 | 48 | 198 | 0.0 | 0.0 | 0.00 | 0.00 | 0.00 | 64 | 1012.5 |
| 20260505050505 | 48 | 198 | 0.0 | 0.0 | 0.00 | 0.00 | 0.00 | 64 | 1012.5 |
| 20260505041506 | 52 | 195 | 0.0 | 0.0 | 0.00 | 0.00 | 0.00 | 57 | 1012.5 |
| 20260505041008 | 52 | 195 | 0.0 | 0.0 | 0.00 | 0.00 | 0.00 | 56 | 1012.5 |
| 20260505040006 | 53 | 194 | 0.0 | 0.0 | 0.00 | 0.00 | 0.00 | 54 | 1012.4 |
| 20260505035506 | 54 | 220 | 0.0 | 0.0 | 0.00 | 0.00 | 0.00 | 53 | 1012.3 |
| 20260505034507 | 56 | 0 | 0.0 | 0.0 | 0.00 | 0.00 | 0.00 | 50 | 1012.2 |
| 20260505034006 | 56 | 0 | 0.0 | 0.0 | 0.00 | 0.00 | 0.00 | 50 | 1012.1 |
| 20260505033006 | 57 | 0 | 0.0 | 0.0 | 0.00 | 0.00 | 0.00 | 49 | 1012.0 |
| 20260505032007 | 59 | 0 | 0.0 | 0.0 | 0.00 | 0.00 | 0.00 | 47 | 1011.9 |
| 20260505031007 | 60 | 0 | 0.0 | 0.0 | 0.00 | 0.00 | 0.00 | 45 | 1011.7 |
| 20260505030506 | 60 | 0 | 0.0 | 0.0 | 0.00 | 0.00 | 0.00 | 43 | 1011.6 |
| 20260505023506 | 64 | 0 | 0.0 | 0.0 | 0.00 | 0.00 | 0.00 | 40 | 1011.2 |
| 20260505022507 | 65 | 0 | 0.0 | 0.0 | 0.00 | 0.00 | 0.00 | 38 | 1011.1 |
| 20260505021507 | 66 | 0 | 2.0 | 3.0 | 0.00 | 0.00 | 0.00 | 35 | 1011.0 |
| 20260505020506 | 67 | 5 | 3.0 | 3.0 | 0.00 | 0.00 | 0.00 | 35 | 1011.0 |
| 20260505020005 | 67 | 5 | 3.0 | 3.0 | 0.00 | 0.00 | 0.00 | 35 | 1010.9 |
| 20260505015006 | 67 | 6 | 3.0 | 6.0 | 0.00 | 0.00 | 0.00 | 34 | 1010.9 |
| 20260505014006 | 68 | 9 | 5.0 | 7.0 | 0.00 | 0.00 | 0.00 | 33 | 1010.9 |
| 20260505012506 | 66 | 11 | 5.0 | 7.0 | 0.00 | 0.00 | 0.00 | 35 | 1010.9 |
| 20260505012005 | 66 | 15 | 6.0 | 8.0 | 0.00 | 0.00 | 0.00 | 36 | 1010.9 |
| 20260505010007 | 67 | 16 | 5.0 | 7.0 | 0.00 | 0.00 | 0.00 | 33 | 1010.9 |
| 20260505005505 | 67 | 12 | 4.0 | 6.0 | 0.00 | 0.00 | 0.00 | 35 | 1010.8 |
| 20260505005006 | 67 | 10 | 3.0 | 6.0 | 0.00 | 0.00 | 0.00 | 34 | 1010.9 |
| 20260505004507 | 67 | 8 | 6.0 | 7.0 | 0.00 | 0.00 | 0.00 | 33 | 1010.8 |
| 20260505004006 | 67 | 19 | 5.0 | 7.0 | 0.00 | 0.00 | 0.00 | 32 | 1011.0 |
| 20260505002006 | 68 | 7 | 4.0 | 6.0 | 0.00 | 0.00 | 0.00 | 32 | 1010.9 |
| 20260505001507 | 69 | 5 | 3.0 | 7.0 | 0.00 | 0.00 | 0.00 | 32 | 1010.8 |
| 20260505000505 | 70 | 3 | 3.0 | 5.0 | 0.00 | 0.00 | 0.00 | 32 | 1010.8 |
| 20260505000006 | 70 | 10 | 5.0 | 7.0 | 0.00 | 0.00 | 0.00 | 30 | 1010.8 |
| 20260504234507 | 71 | 10 | 0.0 | 2.0 | 0.00 | 0.00 | 0.00 | 32 | 1010.7 |
| 20260504234005 | 72 | 10 | 2.0 | 5.0 | 0.00 | 0.00 | 0.00 | 31 | 1010.7 |
| 20260504233006 | 73 | 0 | 0.0 | 0.0 | 0.00 | 0.00 | 0.00 | 28 | 1010.7 |
| 20260504232005 | 74 | 1 | 5.0 | 18.0 | 0.00 | 0.00 | 0.00 | 25 | 1010.7 |
| 20260504231008 | 74 | 307 | 13.0 | 20.0 | 0.00 | 0.00 | 0.00 | 24 | 1010.6 |
| 20260504225006 | 74 | 329 | 9.0 | 16.0 | 0.00 | 0.00 | 0.00 | 22 | 1010.7 |
| 20260504224006 | 73 | 347 | 7.0 | 13.0 | 0.00 | 0.00 | 0.00 | 24 | 1010.8 |
| 20260504223507 | 73 | 340 | 3.0 | 14.0 | 0.00 | 0.00 | 0.00 | 27 | 1010.9 |
| 20260504222506 | 74 | 292 | 8.0 | 17.0 | 0.00 | 0.00 | 0.00 | 27 | 1011.0 |
| 20260504222005 | 73 | 315 | 9.0 | 15.0 | 0.00 | 0.00 | 0.00 | 25 | 1011.1 |
| 20260504215005 | 73 | 264 | 9.0 | 20.0 | 0.00 | 0.00 | 0.00 | 27 | 1011.3 |
| 20260504214505 | 73 | 301 | 10.0 | 14.0 | 0.00 | 0.00 | 0.00 | 27 | 1011.3 |
| 20260504213005 | 73 | 298 | 13.0 | 20.0 | 0.00 | 0.00 | 0.00 | 27 | 1011.5 |
| 20260504210505 | 73 | 326 | 12.0 | 17.0 | 0.00 | 0.00 | 0.00 | 25 | 1011.6 |
| 20260504205505 | 73 | 329 | 6.0 | 12.0 | 0.00 | 0.00 | 0.00 | 26 | 1011.7 |
| 20260504205005 | 73 | 296 | 3.0 | 8.0 | 0.00 | 0.00 | 0.00 | 25 | 1011.7 |
| 20260504204506 | 73 | 348 | 7.0 | 16.0 | 0.00 | 0.00 | 0.00 | 26 | 1011.7 |
| 20260504200505 | 71 | 300 | 10.0 | 16.0 | 0.00 | 0.00 | 0.00 | 25 | 1011.9 |
| 20260504195504 | 71 | 275 | 9.0 | 15.0 | 0.00 | 0.00 | 0.00 | 25 | 1011.9 |
| 20260504194506 | 71 | 292 | 12.0 | 15.0 | 0.00 | 0.00 | 0.00 | 22 | 1012.0 |
| 20260504194004 | 71 | 310 | 11.0 | 15.0 | 0.00 | 0.00 | 0.00 | 21 | 1012.1 |
| 20260504193505 | 71 | 312 | 13.0 | 18.0 | 0.00 | 0.00 | 0.00 | 23 | 1012.1 |
| 20260504190506 | 71 | 323 | 3.0 | 17.0 | 0.00 | 0.00 | 0.00 | 29 | 1012.3 |
| 20260504185506 | 71 | 318 | 9.0 | 13.0 | 0.00 | 0.00 | 0.00 | 26 | 1012.4 |
| 20260504185006 | 70 | 318 | 5.0 | 15.0 | 0.00 | 0.00 | 0.00 | 27 | 1012.4 |
| 20260504184506 | 69 | 317 | 10.0 | 21.0 | 0.00 | 0.00 | 0.00 | 31 | 1012.3 |